Regional Weather Roundup
Issued by NWS Wakefield, VA

Home | Current Version | Previous Version | Graphics & Text | Print | Product List | Glossary On
Versions: 1 2 3 4 5 6 7 8 9 10 11 12 13 14 15 16 17 18 19 20 21 22 23 24 25 26 27 28 29 30 31 32 33 34 35 36 37 38 39 40 41 42 43 44 45 46 47 48 49 50
330
ASUS41 KAKQ 232016
RWRAKQ

REGIONAL WEATHER ROUNDUP
NATIONAL WEATHER SERVICE WAKEFIELD VA
400 PM EDT SUN JUL 23 2017

Note: "fair" indicates few or no clouds below 12,000 feet with no
significant weather and/or obstructions to visibility. * = Denotes
station may not report precipitation (e.g., rain,snow,etc.),
thunder or fog.

VAZ042-051-052>054-056-232100-
NORTHERN VIRGINIA

CITY           SKY/WX    TMP DP  RH WIND       PRES   REMARKS
WASH NATIONAL  PTSUNNY   80  76  87 S10       29.80S
DULLES         CLOUDY    81  73  76 S12       29.79S
FORT BELVOIR   CLOUDY    83  76  79 S3        29.79F
QUANTICO       LGT RAIN  84  79  85 S6        29.80F HX  96
FREDERICKSBRG* MOSUNNY   87  77  71 MISG      29.79F HX  98
STAFFORD*      MOSUNNY   85  76  74 CALM      29.84F HX  95
WARRENTON      CLOUDY    87  72  60 SW8       29.80F
CULPEPER*      MOSUNNY   88  74  63 SW6       29.81F HX  96
MANASSAS*      CLOUDY    82  75  79 SW6       29.79F
LEESBURG*      CLOUDY    82  79  89 SW6       29.79F
WINCHESTER     CLOUDY    79  72  78 NW6         N/A
FRONT ROYAL*   CLOUDY    84  72  65 SW6       29.80F
LURAY*         CLOUDY    86  70  58 S9        29.83S
$$

VAZ048-049-060>072-079>083-232100-
CENTRAL AND SOUTH CENTRAL VIRGINIA

CITY           SKY/WX    TMP DP  RH WIND       PRES   REMARKS
RICHMOND       PTSUNNY   95  68  41 SW10      29.78F HX  99
CHESTERFIELD*  FAIR      94  67  41 W9        29.80F HX  97
PETERSBURG*    CLOUDY    94  67  41 CALM      29.80S HX  97
HANOVER        RAIN      88  69  53 SW17G29   29.81R
TAPPAHANNOCK*  SUNNY     94  58  29 W6        29.79S
QUINTON*       FAIR      93  70  47 W6        29.77F HX  99
CHARLOTTSVILLE MOSUNNY   92  67  43 CALM      29.82F HX  95
GORDONSVILLE*  PTCLDY    91  70  49 W5        29.81S HX  96
ORANGE*        SUNNY     90  68  48 SW9       29.81F
LOUISA*        MOSUNNY   91  64  40 SW5       29.80F
BUMPASS*       MOCLDY    91  70  49 S8        29.80F HX  96
FARMVILLE*       N/A     95  51  22 NW6       29.80F
CREWE*         FAIR      94  61  33 NW3       29.82S
FORT PICKETT*  FAIR     N/A N/A N/A W9G16     29.81F
CHASE CITY*    FAIR      95  67  39 NW5       29.82S HX  98
CLARKSVILLE*   FAIR      95  70  43 W7        29.81S HX 101
SOUTH HILL*    SUNNY     95  72  46 SW10      29.86F HX 103
LAWRENCEVILLE* FAIR      95  70  43 CALM      29.79F HX 102
EMPORIA*       CLOUDY    95  73  49 S7        29.80F HX 105
$$

VAZ088>098-232100-
SOUTHEAST VIRGINIA

CITY           SKY/WX    TMP DP  RH WIND       PRES   REMARKS
NORFOLK        CLOUDY    92  76  59 SW12      29.79R HX 104
VIRGINIA BEACH CLOUDY    84  71  65 S7        29.79R THUNDER
NORFOLK NAVAL  CLOUDY    90  67  46 SW8       29.81R
WEST POINT*    PTSUNNY   95  68  40 SW8       29.78F HX  99
SALUDA*        FAIR      88  79  73 NE6       29.77F HX 103
NEWPORT NEWS   CLOUDY    82  73  74 W7        29.79S
LANGLEY AFB    PTSUNNY   84  79  87 W5        29.79R HX  96
FORT EUSTIS    CLOUDY    82  73  74 S3        29.77F
WILLIAMSBURG*  CLOUDY    88  72  58 SW3       29.80S
HR EXEC AP*    FAIR      84  75  74 S7        29.78R
FRANKLIN*      CLOUDY    90  73  58 CALM      29.80F HX  98
US460-WAKEFLD  CLOUDY    82  76  81 CALM      29.79F
$$

VAZ020-022-025-037-045-232100-
WEST CENTRAL AND SOUTHWEST VIRGINIA

CITY           SKY/WX    TMP DP  RH WIND       PRES   REMARKS
STAUNTON*      CLOUDY    89  67  48 W9        29.88S
WAYNESBORO*    MOCLDY    86  68  55 CALM      29.87F
HOT SPRINGS VA MOSUNNY   73  52  46 W13G18    30.04S
LYNCHBURG      MOSUNNY   93  64  38 SW8       29.85F
DANVILLE       MOSUNNY   90  73  57 VRB3      29.83F HX  98
SOUTH BOSTON*  FAIR      93  66  40 NW8       29.83F HX  96
MARTINSVILLE   MOSUNNY   90  69  50 CALM      29.87F
ROANOKE        PTSUNNY   93  63  36 NW14      29.88F
BLACKSBURG     PTSUNNY   86  62  44 NW5       29.96F
DUBLIN*        PTSUNNY   87  53  31 W8        29.96S
MARION*        CLOUDY    83  61  46 NW6       29.99F
HILLSVILLE*    MOSUNNY   87  50  27 W3G17     29.98R
RICHLANDS*     FAIR      80  65  58 W5        29.99F
WISE*          PTSUNNY   82  63  51 S3        29.99F
ABINGDON*      CLOUDY    86  72  62 SW8       29.95S
$$

MDZ021>025-VAZ099-100-232100-
SOUTHERN MARYLAND AND THE DELMARVA PENINSULA

CITY           SKY/WX    TMP DP  RH WIND       PRES   REMARKS
PATUXENT RIVER LGT RAIN  80  76  87 NE6       29.78F
BAY BRIDGE APT LGT RAIN  75  73  94 S10       29.77F FOG
LEONARDTOWN    PTSUNNY   79  73  83 NE3       29.81S
DOVER          TSTM      75  75 100 NE8G28    29.78R VSB 1/2
GEORGETOWN     CLOUDY    86  73  65 W7        29.80R
EASTON         LGT RAIN  77  73  88 SW8       29.85S
CAMBRIDGE      PTSUNNY   75  73  94 CALM      29.82R FOG
SALISBURY      HVY RAIN  82  75  78 NW13      29.80R
OCEAN CITY     PTSUNNY   85  77  77 W6        29.79R HX  95
WALLOPS ISLAND PTSUNNY   88  75  65 W8        29.79S HX  97
ACCOMACK*      MOSUNNY   90  71  53 N7        29.79S HX  96
$$

NCZ012>017-030>032-232100-
NORTH CENTRAL AND EASTERN NORTH CAROLINA

CITY           SKY/WX    TMP DP  RH WIND       PRES   REMARKS
ROANOKE RAPIDS FAIR      93  77  59 CALM      29.79F HX 107
RALEIGH        MOSUNNY  100  65  31 W7        29.81F HX 103
ELIZABETH CITY TSTM      77  72  84 S6        29.81F
AHOSKIE*         N/A     89  79  72 CALM      29.80F HX 103
EDENTON*       CLOUDY    95  79  59 SW9       29.82S HX 112
CURRITUCK*     LGT RAIN  77  77 100 S3        29.83S
KILL DEVIL HLS CLOUDY    92  77  59 W8        29.82R HX 105
MANTEO         CLOUDY    92  78  62 W12       29.83R HX 107
CAPE HATTERAS  SUNNY     84  76  76 SW14G22   29.86F
TARBORO*       NOT AVBL
GOLDSBORO      SUNNY     97  75  48 SW10      29.81F HX 110
WASHINGTON     SUNNY     94  78  59 SW9       29.81F HX 110
GREENVILLE     SUNNY     97  73  46 W7        29.83F HX 107
NEW BERN       MOSUNNY   93  81  67 S14G22    29.85F HX 113
WILMINGTON     SUNNY     90  76  63 S21G26    29.86F HX 101
$$

VAZ048-232100-
ELSEWHERE

CITY           SKY/WX    TMP DP  RH WIND       PRES   REMARKS
HARRISBURG PA  PTSUNNY   87  74  64 SE7       29.74F HX  95
BALTIMORE      CLOUDY    83  74  74 S7        29.76F
ANNAPOLIS      CLOUDY    78  78 100 S8        29.76F
ANDREWS AFB    PTSUNNY   77  73  88 S9        29.80F
PHILADELPHIA   PTSUNNY   89  71  55 E9        29.78S HX  95
HENDERSON NC   SUNNY     93  67  42 SW9       29.83S HX  97
GREENSBORO     PTSUNNY   95  71  45 W15       29.84F HX 102
ROCKY MOUNT    MOSUNNY   97  75  49 SW12      29.80F HX 109
$$

VAZ100-232100-
MARINE

STATION/POSITION TIME  TEMP    WIND        PRES    WAVE   SWELL
                       AIR SEA DIR/SP/G            HT/PER HT/PER
                 (UTC) (F)     (DEG/KT/KT) (MB)    (FT/S) (FT/S)
BRANDYWINE LGT   1948   82     160/  5/  5 1009.1R
CAPE MAY NJ      1948   81 78  110/  9/ 10 1008.5R
LEWES DE         1948   81 75  150/  5/  6 1008.6R
15NM E FENWICK I 1950   80 78  150/  4/  4 1009.4R   3/ 7   3/ 7
OCEAN-CITY-INLET 1948   82 78   50/  2/  3 1009.0R
WACHAPREAGUE VA  1948   93 88  360/  2/  6 1008.5S
THOMAS POINT MD  2000   77 83  200/ 18/ 20   N/A
COVE POINT MD    1948   79      30/  7/  8 1009.7F
SOLOMONS ISLAND  1948   79 85   60/  6/  7   N/A
BISHOPS HEAD MD  1948   82 86  350/ 10/ 15 1009.6R
PINEY POINT MD   1942          360/ 12/ 13   N/A
CAMBRIDGE MD     1948   76 88              1010.3R
LEWISETTA VA     1948   86 85  360/  5/  7 1008.6F
RAPPAHANNOCK LGT 1942          100/  2/  4 1009.1F
YORK RVR RNG VA  1948   86     250/ 10/ 12 1008.5F
YORKTOWN VA      1948   84 83  230/  9/ 12 1008.0F
DOMINION TERM VA 1948   83     270/  8/ 10 1008.9R
KIPTOPEKE VA     1948      82  200/  4/  4   N/A
CHES BAY BRIDGE  1948   84 82  310/  7/  8 1008.9R
CAPE HENRY VA    1948   86     140/  9/ 11   N/A
WILLOUBY STN VA  1948   83     250/ 10/ 13 1008.8R
S CRANEY ISL VA  1948   88     240/  5/  9 1008.8R
CAPE HENRY BUOY  2000      75                N/A     2/ 9
64NM E OF VA BCH 1950   82 80  210/  8/ 10 1010.1F   4/ 6   3/ 6
DUCK PIER NC     1948   81 58  320/ 27/ 32 1010.2R
44100 DUCK FRF   1905      72                N/A     3/ 7
44056 DUCK FRF   2000      63                N/A     2/10
OREGON INLET NC  1948          200/ 20/ 23   N/A
HATTERAS NC      1948   82 77  210/ 13/ 18 1011.0F
DIAMOND SHLS NC  1950   84 84  220/ 23/ 27 1011.1F   7/ 7   5/10
CAPE LOOKOUT NC  2000   84     210/ 15/ 19 1011.5F
$$




USA.gov is the U.S. government's official web portal to all federal, state and local government web resources and services.